CUBEBEL-1 (BSUSAT-1)

Last updated on Thu Mar 07 2024 00:03:33 GMT+0000 (Coordinated Universal Time)

1 43666U 18083E 24066.06489566 .05038558 24348-5 15687-2 0 9996 2 43666 97.3209 110.6512 0008020 246.8729 113.1719 16.26551119298077

Satellite not in orbit